SCP
-0 -0 -0 -0 -0 0 0 0 0 0 -0 -0 0 0 0 -0 -0 0 0 0 0 0 0 -0 0 -0 -0 -0 0 -0 -0 -0
-0 -0 -0 -0 -0 -0 0 0 0 0 -0 -0 0 -0 -0 -0 0 0 0 0 -0 -0 -0 -0 -0 -0 -0 -0 -0 -0 -0 -0
-0 -0 -0 -0 -0 -0 -0 -0 0 -0 -0 0 -0 0 0 -0 -0 -0 -0 -0 -0 -0 -0 -0 -0 -0 -0 -0 -0 -0 -0 -0
-0 -0 -0 -0 -0 -0 -0 -0 -0 -0 -0 -0 0 0 -0 -0 -0 -0 -0 -0 -0 -0 -0 -0 -0 -0 -0 -0 -0 -1 -0 0
-0 -0 -0 -0 -0 -0 -0 -0 -0 0 0 0 0 0 0 -0 0 0 -0 -0 -0 -0 -0 -0 -0 -0 -0 -0 -0 -1 -0 0
-0 -0 -0 -0 -0 -0 -0 -0 -0 -0 -0 0 -0 -0 -0 -0 -0 -0 0 -0 0 -0 -0 -0 -0 -0 -0 -0 -1 -1 -0 0
-0 -0 -0 -0 -0 -0 -0 -0 -0 -0 -0 -0 -0 -0 -0 -0 0 0 0 0 0 -0 -0 -0 -0 -0 -0 -0 0 -0 0 0
-0 0 0 0 0 0 0 -0 -0 0 -0 -0 0 0 0 0 0 0 0 0 -0 0 0 0 0 0 0 0 0 0 -0 0
0 0 0 0 0 -0 -0 -0 -0 0 -0 0 0 0 -0 0 -0 0 0 0 0 0 0 0 0 -0 0 0 0 0 0 0
0 0 0 0 0 0 0 0 0 0 0 0 0 0 0 0 0 0 0 0 0 0 0 0 0 0 0 0 0 0 0 0
0 0 0 0 0 0 1 0 0 0 0 0 0 0 0 0 0 0 0 0 0 0 0 0 0 0 0 0 0 0 0 0
0 0 0 0 0 0 1 1 1 0 0 0 0 0 0 0 0 0 0 0 0 0 0 0 0 0 0 0 0 0 0 0
0 1 0 0 1 1 1 1 1 1 1 0 0 0 0 0 0 0 0 0 0 0 0 0 0 0 0 0 0 0 0 0
0 0 0 1 0 1 1 1 1 0 0 0 0 0 0 0 0 0 0 0 0 0 0 0 0 0 0 0 0 0 0 0
0 0 1 1 0 1 1 1 0 0 0 0 0 0 0 0 0 0 0 0 0 0 0 0 0 0 0 0 0 0 1 1
0 1 1 0 1 1 0 0 0 0 0 0 0 0 0 0 0 0 0 0 0 0 0 0 0 0 0 0 0 0 0 0
0 1 0 0 0 0 0 0 0 0 0 0 0 0 0 0 0 0 0 0 0 0 0 0 0 0 0 0 0 0 0 0
0 0 0 0 0 0 0 0 0 0 0 0 0 0 0 0 0 0 0 0 0 0 0 0 0 0 0 0 0 0 0 0
0 0 0 0 0 0 0 0 0 0 0 0 0 0 0 0 0 0 0 0 0 0 0 0 0 0 0 0 0 0 0 0
Wind_Speed_500mb
40 35 39 41 40 37 37 37 34 31 28 28 27 26 23 21 18 14 14 14 14 15 15 15 15 15 16 19 20 21 15 21
37 39 41 41 40 38 37 36 32 29 26 26 23 21 18 14 12 10 11 12 12 12 12 13 13 12 14 15 14 16 18 23
33 38 41 41 40 38 36 34 30 28 26 24 21 18 15 11 9 8 9 10 12 14 15 15 13 12 12 14 14 17 20 15
38 34 40 38 38 36 35 33 29 25 23 22 19 14 11 7 7 8 8 10 12 14 15 15 14 13 13 15 16 18 19 16
39 34 34 36 35 33 31 30 27 23 19 16 14 11 9 10 9 10 7 8 11 12 14 15 15 15 15 17 24 16 13 13
33 36 35 31 30 23 24 26 23 20 17 14 10 7 13 8 13 10 12 13 13 12 13 13 14 14 10 10 14 21 20 17
37 39 35 36 29 27 22 18 21 20 15 8 6 4 15 6 9 11 15 11 15 18 10 17 19 12 19 23 19 22 25 21
41 40 39 38 39 33 27 10 17 7 6 7 20 22 11 12 11 9 16 15 11 13 16 15 17 14 12 13 10 14 18 14
42 40 38 35 43 33 25 18 15 26 15 16 11 17 12 8 4 8 4 6 16 7 3 11 10 22 28 10 10 20 18 13
43 41 40 38 45 35 26 30 23 27 19 22 21 19 22 16 17 18 18 21 14 21 9 12 11 26 20 6 12 22 16 20
40 43 35 34 38 36 40 28 36 31 29 22 27 34 32 30 32 30 10 9 18 23 19 15 17 23 17 11 13 20 24 16
40 40 43 33 30 28 35 36 31 30 20 27 40 36 29 35 26 22 19 26 31 21 18 22 22 21 19 18 19 25 18 10
43 43 38 31 38 39 36 33 25 30 27 25 25 24 27 27 26 23 17 30 22 20 25 31 27 25 29 29 28 21 7 13
49 51 44 31 34 42 35 33 29 33 26 26 18 24 23 25 22 25 29 31 21 22 32 33 31 31 23 26 16 4 6 9
44 48 48 39 40 43 39 37 35 29 27 24 34 34 23 23 20 23 31 26 30 32 36 32 25 19 17 17 8 12 16 6
46 47 52 54 54 50 40 36 28 26 28 33 33 27 27 25 23 24 33 27 33 33 30 18 11 3 13 3 17 18 8 19
53 49 52 42 50 42 36 31 27 30 27 29 30 23 22 21 23 25 31 28 25 23 20 11 12 13 9 4 12 25 21 13
49 52 41 48 42 39 32 46 44 51 38 27 18 20 18 21 23 22 22 19 19 22 12 12 11 14 5 7 4 16 14 17
43 43 39 42 39 39 35 45 47 39 22 15 17 21 18 16 13 12 14 14 13 14 10 12 14 20 16 10 7 11 11 16
Wind_Direction_500mb
144 157 150 144 139 140 141 140 132 133 132 139 139 137 132 126 118 107 96 87 78 67 55 56 52 49 48 53 63 70 89 79
151 155 153 149 147 148 150 148 139 138 140 147 148 147 141 132 119 101 83 71 63 55 47 38 37 35 41 47 46 52 71 71
156 153 155 156 156 155 157 157 153 152 154 155 155 151 142 133 114 88 71 60 44 36 29 27 26 29 34 39 35 40 49 57
144 161 159 163 162 162 164 167 165 162 161 161 156 150 136 111 76 58 42 41 35 32 30 32 31 36 43 40 26 24 66 70
150 150 155 165 165 168 173 177 175 174 173 168 161 153 132 90 45 26 356 33 28 27 35 40 39 42 54 53 36 32 61 78
158 159 156 159 164 158 185 185 185 185 182 179 171 155 119 63 33 332 360 359 351 0 13 18 17 36 34 358 23 20 359 2
162 159 167 161 162 166 190 193 195 192 184 170 140 243 150 20 204 185 318 359 37 29 19 31 26 38 348 343 326 332 348 341
169 166 166 178 170 165 178 219 178 204 167 140 187 217 178 199 233 279 298 304 13 354 6 342 346 321 272 266 284 309 298 313
172 172 173 179 163 172 183 179 175 193 188 231 262 233 188 205 173 249 305 358 335 58 331 312 284 292 278 288 331 301 286 276
169 167 169 178 176 183 161 183 185 190 180 214 203 250 179 198 229 192 231 234 251 254 248 257 256 278 285 304 294 268 279 269
170 173 178 182 185 180 163 180 190 181 202 194 195 222 209 196 217 213 221 228 228 237 238 246 252 274 283 277 282 282 269 301
172 168 181 173 180 176 182 182 179 193 212 204 227 228 219 214 223 214 209 221 237 250 258 258 264 268 271 259 260 261 266 288
170 179 175 177 181 180 190 181 173 178 180 194 232 229 218 218 227 203 217 242 260 267 273 276 277 273 274 269 259 270 253 253
181 180 164 179 196 182 176 167 183 188 182 195 211 239 219 221 218 223 234 253 261 261 268 273 276 272 275 273 262 71 257 176
183 182 173 174 197 190 187 183 198 179 187 196 209 229 233 234 232 230 254 262 264 265 267 280 270 267 264 279 249 150 193 166
183 187 178 188 198 202 191 176 185 187 192 212 230 236 238 242 243 236 254 262 271 272 272 268 238 288 248 222 134 143 205 197
185 194 193 194 208 203 195 182 190 194 194 216 240 240 241 247 252 250 259 264 261 269 264 250 184 160 297 203 205 158 156 145
191 192 203 198 205 184 190 192 189 198 207 236 247 246 245 250 249 247 243 246 225 245 252 220 199 158 111 18 133 182 178 141
192 190 195 201 206 189 201 205 209 213 236 201 200 245 246 227 237 231 227 214 213 227 214 187 177 156 148 116 62 99 79 124
Wind_Speed_850mb
40 35 39 41 40 37 37 37 34 31 28 28 27 26 23 21 18 14 14 14 14 15 15 15 15 15 16 19 20 21 15 21
37 39 41 41 40 38 37 36 32 29 26 26 23 21 18 14 12 10 11 12 12 12 12 13 13 12 14 15 14 16 18 23
33 38 41 41 40 38 36 34 30 28 26 24 21 18 15 11 9 8 9 10 12 14 15 15 13 12 12 14 14 17 20 15
38 34 40 38 38 36 35 33 29 25 23 22 19 14 11 7 7 8 8 10 12 14 15 15 14 13 13 15 16 18 19 16
39 34 34 36 35 33 31 30 27 23 19 16 14 11 9 10 9 10 7 8 11 12 14 15 15 15 15 17 24 16 13 13
33 36 35 31 30 23 24 26 23 20 17 14 10 7 13 8 13 10 12 13 13 12 13 13 14 14 10 10 14 21 20 17
37 39 35 36 29 27 22 18 21 20 15 8 6 4 15 6 9 11 15 11 15 18 10 17 19 12 19 23 19 22 25 21
41 40 39 38 39 33 27 10 17 7 6 7 20 22 11 12 11 9 16 15 11 13 16 15 17 14 12 13 10 14 18 14
42 40 38 35 43 33 25 18 15 26 15 16 11 17 12 8 4 8 4 6 16 7 3 11 10 22 28 10 10 20 18 13
43 41 40 38 45 35 26 30 23 27 19 22 21 19 22 16 17 18 18 21 14 21 9 12 11 26 20 6 12 22 16 20
40 43 35 34 38 36 40 28 36 31 29 22 27 34 32 30 32 30 10 9 18 23 19 15 17 23 17 11 13 20 24 16
40 40 43 33 30 28 35 36 31 30 20 27 40 36 29 35 26 22 19 26 31 21 18 22 22 21 19 18 19 25 18 10
43 43 38 31 38 39 36 33 25 30 27 25 25 24 27 27 26 23 17 30 22 20 25 31 27 25 29 29 28 21 7 13
49 51 44 31 34 42 35 33 29 33 26 26 18 24 23 25 22 25 29 31 21 22 32 33 31 31 23 26 16 4 6 9
44 48 48 39 40 43 39 37 35 29 27 24 34 34 23 23 20 23 31 26 30 32 36 32 25 19 17 17 8 12 16 6
46 47 52 54 54 50 40 36 28 26 28 33 33 27 27 25 23 24 33 27 33 33 30 18 11 3 13 3 17 18 8 19
53 49 52 42 50 42 36 31 27 30 27 29 30 23 22 21 23 25 31 28 25 23 20 11 12 13 9 4 12 25 21 13
49 52 41 48 42 39 32 46 44 51 38 27 18 20 18 21 23 22 22 19 19 22 12 12 11 14 5 7 4 16 14 17
43 43 39 42 39 39 35 45 47 39 22 15 17 21 18 16 13 12 14 14 13 14 10 12 14 20 16 10 7 11 11 16
Wind_Direction_850mb
144 157 150 144 139 140 141 140 132 133 132 139 139 137 132 126 118 107 96 87 78 67 55 56 52 49 48 53 63 70 89 79
151 155 153 149 147 148 150 148 139 138 140 147 148 147 141 132 119 101 83 71 63 55 47 38 37 35 41 47 46 52 71 71
156 153 155 156 156 155 157 157 153 152 154 155 155 151 142 133 114 88 71 60 44 36 29 27 26 29 34 39 35 40 49 57
144 161 159 163 162 162 164 167 165 162 161 161 156 150 136 111 76 58 42 41 35 32 30 32 31 36 43 40 26 24 66 70
150 150 155 165 165 168 173 177 175 174 173 168 161 153 132 90 45 26 356 33 28 27 35 40 39 42 54 53 36 32 61 78
158 159 156 159 164 158 185 185 185 185 182 179 171 155 119 63 33 332 360 359 351 0 13 18 17 36 34 358 23 20 359 2
162 159 167 161 162 166 190 193 195 192 184 170 140 243 150 20 204 185 318 359 37 29 19 31 26 38 348 343 326 332 348 341
169 166 166 178 170 165 178 219 178 204 167 140 187 217 178 199 233 279 298 304 13 354 6 342 346 321 272 266 284 309 298 313
172 172 173 179 163 172 183 179 175 193 188 231 262 233 188 205 173 249 305 358 335 58 331 312 284 292 278 288 331 301 286 276
169 167 169 178 176 183 161 183 185 190 180 214 203 250 179 198 229 192 231 234 251 254 248 257 256 278 285 304 294 268 279 269
170 173 178 182 185 180 163 180 190 181 202 194 195 222 209 196 217 213 221 228 228 237 238 246 252 274 283 277 282 282 269 301
172 168 181 173 180 176 182 182 179 193 212 204 227 228 219 214 223 214 209 221 237 250 258 258 264 268 271 259 260 261 266 288
170 179 175 177 181 180 190 181 173 178 180 194 232 229 218 218 227 203 217 242 260 267 273 276 277 273 274 269 259 270 253 253
181 180 164 179 196 182 176 167 183 188 182 195 211 239 219 221 218 223 234 253 261 261 268 273 276 272 275 273 262 71 257 176
183 182 173 174 197 190 187 183 198 179 187 196 209 229 233 234 232 230 254 262 264 265 267 280 270 267 264 279 249 150 193 166
183 187 178 188 198 202 191 176 185 187 192 212 230 236 238 242 243 236 254 262 271 272 272 268 238 288 248 222 134 143 205 197
185 194 193 194 208 203 195 182 190 194 194 216 240 240 241 247 252 250 259 264 261 269 264 250 184 160 297 203 205 158 156 145
191 192 203 198 205 184 190 192 189 198 207 236 247 246 245 250 249 247 243 246 225 245 252 220 199 158 111 18 133 182 178 141
192 190 195 201 206 189 201 205 209 213 236 201 200 245 246 227 237 231 227 214 213 227 214 187 177 156 148 116 62 99 79 124